Regional Weather Roundup
Issued by NWS

Home | Current Version | Previous Version | Graphics & Text | Print | Product List | Glossary On
Versions: 1 2 3 4 5 6 7 8 9 10 11 12 13 14 15 16 17 18 19 20 21 22 23 24 25 26 27 28 29 30 31 32 33 34 35 36 37 38 39 40 41 42 43 44 45 46 47 48 49 50
617
ASUS45 KBOU 252107
RWRCO

WEATHER ROUNDUP FOR COLORADO
NATIONAL WEATHER SERVICE DENVER/BOULDER CO
300 PM MDT THU AUG 25 2016

NOTE: "FAIR" INDICATES FEW OR NO CLOUDS BELOW 12000 FEET WITH NO
SIGNIFICANT WEATHER AND/OR OBSTRUCTIONS TO VISIBILITY.

COZ001>005-013-030-031-252200-
...NORTHWEST COLORADO...

CITY           SKY/WX    TMP DP  RH WIND       PRES   REMARKS
CRAIG          FAIR      73  33  23 W10       30.21F
HAYDEN         FAIR      68  36  30 W8G17     30.24S
MEEKER         FAIR      69  38  32 S8        30.23F
MOUNT WERNER   NOT AVBL
STEAMBOAT SPGS FAIR      71  34  25 SW13G24   30.23F
WALDEN         FAIR      63  27  25 W15G22    30.31S
$$

COZ006>008-011-252200-
...WEST CENTRAL VALLEYS...

CITY           SKY/WX    TMP DP  RH WIND       PRES   REMARKS
GRAND JUNCTION FAIR      81  37  20 CALM      30.06F
MONTROSE       FAIR      77  40  26 SW3       30.14F
EAGLE          SUNNY     68  36  30 CALM      30.27F
RIFLE          CLOUDY    79  36  21 NE8       30.15F
DELTA          FAIR      83  36  19 CALM      30.09F
NUCLA          FAIR      81  36  19 SW5       30.16F
$$

COZ017>023-064>068-252200-
...SOUTHWEST COLORADO...

CITY           SKY/WX    TMP DP  RH WIND       PRES   REMARKS
DURANGO        FAIR      74  39  28 N13       30.24S
CORTEZ         FAIR      78  46  32 S10       30.16F
PAGOSA SPRINGS RAIN      59  42  52 NE13      30.38R
TELLURIDE      FAIR      60  42  52 CALM      30.38F
WOLF CREEK PAS LGT RAIN  36  32  87 SW12G23   30.64F
$$

COZ009-010-012-014-032>034-037-058>063-252200-
...CENTRAL COLORADO...

CITY           SKY/WX    TMP DP  RH WIND       PRES   REMARKS
ASPEN          FAIR      59  40  49 SE16G25   30.34F
BUENA VISTA    FAIR      60  37  43 NW30      30.34F
COPPER MTN     LGT SNOW  41  32  70 W16G26    30.60R
BERTHOUD PASS  TSTM      32  19  59 N23G32    30.58F VSB<1/4 WCI  19
COTTONWOOD PAS PTSUNNY   57  32  38 NW14G22   30.44F
GUNNISON       CLOUDY    61  41  48 NE8       30.36S
KREMMLING      CLOUDY    61  37  41 NE9       30.34S
LEADVILLE      CLOUDY    47  34  60 MISG      30.49F
MONARCH PASS   CLOUDY    45  28  53 NW25G31   30.69R THUNDER
SALIDA         PTSUNNY   70  36  28 N20G28    30.37R
SUNLIGHT       PTSUNNY   54  37  54 SW3       30.50F
WILKERSON PASS TSTM      36  34  93 NW13G28   30.56R
$$

COZ069>075-252200-
...SAN LUIS VALLEY/SANGRE DE CRISTO MOUNTAINS...

CITY           SKY/WX    TMP DP  RH WIND       PRES   REMARKS
ALAMOSA        FAIR      69  34  27 S8        30.29F
LA VETA PASS   FAIR      54  45  71 NE12G20   30.48S
SAGUACHE       CLOUDY    63  32  31 SE3G24    30.33S
$$

COZ035-036-038>040-252200-
...NORTHERN COLORADO FRONT RANGE...

CITY           SKY/WX    TMP DP  RH WIND       PRES   REMARKS
DENVER INTL AP PTSUNNY   70  44  39 NW9       30.22F
DMNS CITY PARK   N/A     65  46  50 W6        30.23F
AURORA         PTSUNNY   66  47  51 NW13      30.23F
FRONT RANGE AP PTSUNNY   73  39  29 CALM      30.22F
ERIE MUNI ARPT FAIR      70  40  33 CALM      30.24R
BOULDER MUN AP PTSUNNY   68  41  37 NW9       30.26R
CENTENNIAL     TSTM      63  45  51 NW17      30.24F
BROOMFIELD     CLOUDY    68  41  37 NE7       30.26F
FORT COLLINS   FAIR      61  52  72 SE13      30.21F
LONGMONT       CLOUDY    70  42  35 NW8       30.28R
$$

COZ041-046-047-076>085-087-088-252200-
...PIKES PEAK/PALMER DIVIDE AND SOUTHERN FOOTHILLS...

CITY           SKY/WX    TMP DP  RH WIND       PRES   REMARKS
COLO. SPRINGS  LGT RAIN  70  42  36 S16G23    30.26F
A. F. ACADEMY  MOSUNNY   68  44  42 S16       30.24F
SCHRIEVER AFB  NOT AVBL
ELLICOTT       FAIR       1  32 100 SE6G21    30.24F WCI -10
FALCON         FAIR      70  40  34 S13       30.30F
FORT CARSON    NOT AVBL
LIMON          FAIR      75  40  28 E12       30.21F
MONUMENT HILL  FAIR      68  41  37 S14G23    30.29F
TRINIDAD       FAIR      72  48  42 E8        30.22F
$$

COZ042>045-048>051-090-091-252200-
...NORTHEAST COLORADO...

CITY           SKY/WX    TMP DP  RH WIND       PRES   REMARKS
GREELEY ARPT   PTSUNNY   72  39  30 SE10      30.23F
AKRON          FAIR      75  41  29 SE12G22   30.21F
BURLINGTON     FAIR      76  47  35 E15G24    30.20F
WRAY           NOT AVBL
STERLING       FAIR      77  41  27 SE6G17    30.17F
HOLYOKE        FAIR      79  43  27 SE13G18   30.20F
FORT MORGAN    FAIR      78  37  23 E8G22     30.20F
$$

COZ086-089-092>099-252200-
...SOUTHEAST COLORADO...

CITY           SKY/WX    TMP DP  RH WIND       PRES   REMARKS
PUEBLO         FAIR      79  45  29 E12G18    30.17F
LA JUNTA       FAIR      79  50  36 E13G21    30.16F
LAMAR          PTSUNNY   74  56  53 NE10G17   30.16F
SPRINGFIELD      N/A     71  59  65 E12       30.18F
$$




USA.gov is the U.S. government's official web portal to all federal, state and local government web resources and services.